Location: Buckeye Ditch
(40.9104°N, 122.9517°W)
Time: 22:10:13
(UTC+00:00)

Transit 2A - Pass Details

Date: 22 May 2025
Orbit: 599 x 947 km, 66.7° (Epoch: 20 June)

Event Time Altitude Azimuth Distance (km) Brightness Sun altitude
Rises 15:44:48 0° 250° (WSW) 2,989 8.6 31.2°
Reaches altitude 10° 15:47:50 10° 270° (W) 2,028 7.8 31.8°
Maximum altitude 15:50:53 18° 313° (NW) 1,555 7.4 32.4°
Drops below altitude 10° 15:53:51 10° 356° (N) 1,965 8.2 32.9°
Sets 15:56:45 0° 16° (NNE) 2,856 9.1 33.5°
